Location: Asheville, NC
(35.6000°N, 82.5500°W)
Time: 07:02:29
(UTC-05:00)

Hubble Space Telescope - Pass Details

Date: 16 February 2018
Orbit: 537 x 541 km, 28.5° (Epoch: 18 February)

Event Time Altitude Azimuth Distance (km) Brightness Sun altitude
Rises 06:20:16 0° 209° (SSW) 2,665 4.1 -11.9°
Reaches altitude 10° 06:24:28 10° 168° (SSE) 1,779 3.7 -11.1°
Maximum altitude 06:25:13 10° 157° (SSE) 1,753 3.8 -10.9°
Drops below altitude 10° 06:25:58 10° 147° (SSE) 1,781 4.0 -10.8°
Sets 06:30:10 0° 106° (ESE) 2,675 6.5 -9.9°
